Hourly Data Report for May 06, 2012

All times are specified in Local Standard Time (LST). Add 1 hour to adjust for Daylight Saving Time where and when it is observed.

YARMOUTH A
NOVA SCOTIA

43°49'37.000" N
66°05'17.000" W
42.90 m
8206495
71603
YQI

Download Data

Hourly Data (May 2012)
Hourly Data Report for May 6, 2012
Temp Definition
°C
Dew Point Temp Definition
°C
Rel Hum Definition
%
Wind Dir Definition
10's deg

Wind Spd Definition
km/h
Visibility Definition
km
Stn Press Definition
kPa
Hmdx Definition


Wind Chill Definition


Weather Definition


TIME
00:00 7.0 7.0 100 35 16 1.2 101.19     Fog
01:00 8.1 8.1 100 36 14 3.2 101.20     Fog
02:00 8.1 8.1 100 1 19 1.2 101.17     Fog
03:00 7.8 7.8 100 4 14 10.0 101.14     LegendNANA
04:00 8.4 8.0 97 3 14 10.0 101.13     LegendNANA
05:00 7.7 7.0 95 3 17 10.0 101.15     Mainly Clear
06:00 8.1 6.7 91 4 16 10.0 101.17     LegendNANA
07:00 8.5 6.0 84 3 27 10.0 101.17     LegendNANA
08:00 9.9 6.1 77 2 19 10.0 101.17     Mostly Cloudy
09:00 10.3 5.3 71 1 16 10.0 101.20     LegendNANA
10:00 10.5 6.1 74 32 28 10.0 101.28     LegendNANA
11:00 11.6 6.8 72 33 24 10.0 101.26     Mainly Clear
12:00 14.2 7.1 62 32 21 10.0 101.13     LegendNANA
13:00 14.5 6.2 57 35 28 10.0 101.10     LegendNANA
14:00 12.6 6.5 66 33 35 10.0 101.12     Mainly Clear
15:00 13.1 6.0 62 32 36 10.0 101.08     LegendNANA
16:00 14.0 5.4 56 35 30 10.0 101.04     LegendNANA
17:00 13.1 3.8 53 36 27 10.0 101.08     Mostly Cloudy
18:00 12.4 3.4 54 1 23 10.0 101.13     LegendNANA
19:00 11.9 3.2 55 3 20 10.0 101.14     LegendNANA
20:00 8.9 2.7 65 1 14 10.0 101.20     Mainly Clear
21:00 7.3 2.6 72 0 9 10.0 101.25     LegendNANA
22:00 6.2 4.2 87 32 15 10.0 101.32     LegendNANA
23:00 5.6 4.1 90 0 17 10.0 101.28     Mainly Clear

Notes on Data Quality.

Legend

  • E = Estimated
  • M = Missing
  • NA = Not Available
Date modified: